Location: Aydie
(43.5695°N, 0.1043°W)
Time: 11:46:06
(UTC+00:00)

Cosmos 407 Rocket - Pass Details

Date: 17 November 2025
Orbit: 740 x 780 km, 74.0° (Epoch: 11 December)

Event Time Altitude Azimuth Distance (km) Brightness Sun altitude
Rises 17:00:34 0° 181° (S) 3,209 7.0 -5.3°
Reaches altitude 10° 17:03:01 10° 175° (S) 2,281 6.2 -5.7°
Maximum altitude 17:07:55 45° 104° (ESE) 1,017 3.8 -6.6°
Drops below altitude 10° 17:12:49 10° 32° (NNE) 2,273 5.5 -7.4°
Sets 17:15:14 0° 27° (NNE) 3,197 6.3 -7.8°
Enters shadow 17:15:22 - 27° (NNE) 3,247 6.3 -7.9°
